9W2KHE-13 Weather Reports


time (UTC)temp
C
wind
direction
speed
KPH
gust
KPH
rain 1hr
cm
rain 24hr
cm
rain mn
cm
humidity
%
barometer
mb
20260506201019 28 135 0.0 0.0 0.00 0.00 0.00 72 1009.4
20260506200518 28 135 0.0 0.0 0.00 0.00 0.00 72 1009.3
20260506200020 28 135 0.0 0.0 0.00 0.00 0.00 72 1009.3
20260506195516 28 135 0.0 0.0 0.00 0.00 0.00 72 1009.3
20260506195015 28 135 0.0 0.0 0.00 0.00 0.00 71 1009.4
20260506194514 28 135 0.0 0.0 0.00 0.00 0.00 71 1009.5
20260506194013 28 135 0.0 0.0 0.00 0.00 0.00 71 1009.6
20260506193011 28 135 0.0 0.0 0.00 0.00 0.00 71 1009.6
20260506192509 28 135 0.0 0.0 0.00 0.00 0.00 71 1009.7
20260506185505 29 135 0.0 0.0 0.00 0.00 0.00 70 1009.8
20260506185004 29 135 0.0 0.0 0.00 0.00 0.00 70 1009.7
20260506184001 29 135 0.0 0.0 0.00 0.00 0.00 70 1009.8
20260506181958 29 135 0.0 0.0 0.00 0.00 0.00 69 1010.1
20260506181458 29 135 0.0 0.0 0.00 0.00 0.00 69 1010.2
20260506181002 29 135 0.0 0.0 0.00 0.00 0.00 69 1010.4
20260506180453 29 135 0.0 0.0 0.00 0.00 0.00 69 1010.3
20260506175952 30 135 0.0 0.0 0.00 0.00 0.00 69 1010.5
20260506175451 30 135 0.0 0.0 0.00 0.00 0.00 69 1010.5
20260506174958 30 135 0.0 0.0 0.00 0.00 0.00 69 1010.5
20260506174458 30 135 0.0 0.0 0.00 0.00 0.00 69 1010.6
20260506173948 30 135 0.0 0.0 0.00 0.00 0.00 69 1010.6
20260506173447 30 135 0.0 0.0 0.00 0.00 0.00 69 1010.7
20260506172946 30 135 0.0 0.0 0.00 0.00 0.00 69 1010.6
20260506171954 30 135 0.0 0.0 0.00 0.00 0.00 69 1011.3
20260506171444 30 135 0.0 0.0 0.00 0.00 0.00 69 1011.3
20260506170942 30 135 0.0 0.0 0.00 0.00 0.00 69 1011.2
20260506170441 30 135 0.0 0.0 0.00 0.00 0.00 69 1011.2
20260506165940 30 135 0.0 0.0 0.00 0.00 0.00 69 1011.1
20260506165447 30 135 0.0 0.0 0.00 0.00 0.00 69 1011.1
20260506164938 30 135 0.0 0.0 0.00 0.00 0.00 69 1011.3
20260506164438 30 135 0.0 0.0 0.00 0.00 0.00 69 1011.2
20260506162943 30 135 0.0 0.0 0.00 0.00 0.00 69 1011.3
20260506162432 30 135 0.0 0.0 0.00 0.00 0.00 69 1011.4
20260506161431 30 135 0.0 0.0 0.00 0.00 0.00 69 1011.5
20260506160929 30 135 0.0 0.0 0.00 0.00 0.00 69 1011.4
20260506160432 30 135 0.0 0.0 0.00 0.00 0.00 69 1011.4
20260506155927 30 135 0.0 0.0 0.00 0.00 0.00 69 1011.6
20260506155426 30 135 0.0 0.0 0.00 0.00 0.00 69 1011.6
20260506154925 30 135 0.0 0.0 0.00 0.00 0.00 69 1011.6
20260506154426 30 135 0.0 0.0 0.00 0.00 0.00 69 1011.6
20260506153428 30 135 0.0 0.0 0.00 0.00 0.00 69 1011.4
20260506152922 30 135 0.0 0.0 0.00 0.00 0.00 69 1011.4
20260506152420 30 135 0.0 0.0 0.00 0.00 0.00 69 1011.7
20260506151420 30 135 0.0 0.0 0.00 0.00 0.00 69 1011.6
20260506150917 30 135 0.0 0.0 0.00 0.00 0.00 69 1011.6
20260506145916 30 135 0.0 0.0 0.00 0.00 0.00 69 1011.6
20260506145422 30 135 0.0 0.0 0.00 0.00 0.00 69 1011.5
20260506144411 30 135 0.0 0.0 0.00 0.00 0.00 68 1011.6
20260506143910 30 148 0.0 0.0 0.00 0.00 0.00 68 1011.4
20260506143411 30 135 0.0 0.0 0.00 0.00 0.00 68 1011.4
20260506142908 30 135 0.0 0.0 0.00 0.00 0.00 68 1011.5
20260506141906 30 153 0.0 0.0 0.00 0.00 0.00 68 1011.4
20260506141405 30 135 0.0 0.0 0.00 0.00 0.00 68 1011.1
20260506140904 30 145 0.0 0.0 0.00 0.00 0.00 68 1011.0
20260506140403 30 160 0.0 0.0 0.00 0.00 0.00 67 1011.0
20260506135909 30 138 0.0 0.0 0.00 0.00 0.00 67 1010.8
20260506135401 30 135 0.0 0.0 0.00 0.00 0.00 67 1010.8
20260506134900 30 135 0.0 0.0 0.00 0.00 0.00 67 1010.7
20260506134359 30 135 0.0 0.0 0.00 0.00 0.00 67 1010.5
20260506133858 30 135 0.0 0.0 0.00 0.00 0.00 67 1010.2
20260506133405 30 135 0.0 0.0 0.00 0.00 0.00 67 1010.2
20260506132856 30 135 0.0 0.0 0.00 0.00 0.00 67 1010.1
20260506132357 30 135 0.0 0.0 0.00 0.00 0.00 67 1010.1
20260506131355 30 135 0.0 0.0 0.00 0.00 0.00 66 1010.2
20260506130350 30 135 0.0 0.0 0.00 0.00 0.00 66 1010.2
20260506125852 30 135 0.0 0.0 0.00 0.00 0.00 66 1010.1
20260506124847 30 135 0.0 0.0 0.00 0.00 0.00 66 1010.2
20260506124353 30 135 0.0 0.0 0.00 0.00 0.00 66 1010.3
20260506123845 30 135 0.0 0.0 0.00 0.00 0.00 66 1010.2
20260506123344 30 135 0.0 0.0 0.00 0.00 0.00 66 1010.3
20260506122843 30 135 0.0 0.0 0.00 0.00 0.00 65 1010.2
20260506122342 31 135 0.0 0.0 0.00 0.00 0.00 65 1010.0
20260506121846 31 135 0.0 0.0 0.00 0.00 0.00 65 1010.0
20260506120839 31 135 0.0 0.0 0.00 0.00 0.00 65 1009.9
20260506120340 31 135 0.0 0.0 0.00 0.00 0.00 65 1009.8
20260506115837 31 135 0.0 0.0 0.00 0.00 0.00 65 1009.7
20260506114835 31 135 0.0 0.0 0.00 0.00 0.00 65 1009.5
20260506114335 31 135 0.0 0.0 0.00 0.00 0.00 65 1009.4
20260506113839 31 135 0.0 0.0 0.00 0.00 0.00 65 1009.2
20260506113334 31 135 0.0 0.0 0.00 0.00 0.00 65 1009.2
20260506112834 31 135 0.0 0.0 0.00 0.00 0.00 65 1009.1
20260506112329 31 135 0.0 0.0 0.00 0.00 0.00 65 1009.1
20260506111835 31 136 0.0 0.0 0.00 0.00 0.00 65 1009.1
20260506111327 31 135 0.0 0.0 0.00 0.00 0.00 65 1009.0
20260506110828 31 135 0.0 0.0 0.00 0.00 0.00 64 1008.8
20260506105827 31 135 0.0 0.0 0.00 0.00 0.00 64 1008.7
20260506105323 31 135 0.0 0.0 0.00 0.00 0.00 64 1008.8
20260506104822 31 135 0.0 0.0 0.00 0.00 0.00 64 1008.8
20260506104321 31 135 0.0 0.0 0.00 0.00 0.00 64 1008.7
20260506103319 31 135 0.0 0.0 0.00 0.00 0.00 64 1008.5
20260506102824 31 135 0.0 0.0 0.00 0.00 0.00 64 1008.3
20260506102317 31 135 0.0 0.0 0.00 0.00 0.00 64 1008.3
20260506101816 31 135 0.0 0.0 0.00 0.00 0.00 64 1008.4
20260506101321 31 135 0.0 0.0 0.00 0.00 0.00 64 1008.2
20260506100814 31 135 0.0 0.0 0.00 0.00 0.00 64 1008.3
20260506100314 31 135 0.0 0.0 0.00 0.00 0.00 64 1008.4
20260506095819 31 135 0.0 0.0 0.00 0.00 0.00 64 1008.4
20260506095319 31 135 0.0 0.0 0.00 0.00 0.00 64 1008.4
20260506094308 31 135 0.0 0.0 0.00 0.00 0.00 65 1008.3
20260506093808 31 135 0.0 0.0 0.00 0.00 0.00 65 1008.2
20260506093306 31 135 0.0 0.0 0.00 0.00 0.00 65 1008.1
20260506092806 31 135 0.0 0.0 0.00 0.00 0.00 65 1008.1
20260506092311 31 135 0.0 0.0 0.00 0.00 0.00 65 1008.1
20260506091806 31 135 0.0 0.0 0.00 0.00 0.00 65 1008.1
20260506091304 31 135 0.0 0.0 0.00 0.00 0.00 65 1008.0
20260506090804 31 135 0.0 0.0 0.00 0.00 0.00 64 1008.1
20260506090300 31 135 0.0 0.0 0.00 0.00 0.00 64 1008.1
20260506085805 31 135 0.0 0.0 0.00 0.00 0.00 64 1008.0
20260506084757 31 135 0.0 0.0 0.00 0.00 0.00 64 1008.0
20260506084256 31 135 0.0 0.0 0.00 0.00 0.00 64 1008.1
20260506083755 31 144 0.0 0.0 0.00 0.00 0.00 64 1008.2
20260506082753 31 135 0.0 0.0 0.00 0.00 0.00 64 1008.4
20260506082253 31 152 0.0 0.0 0.00 0.00 0.00 64 1008.4
20260506081753 31 135 0.0 0.0 0.00 0.00 0.00 63 1008.5
20260506081251 31 135 0.0 0.0 0.00 0.00 0.00 63 1008.4
20260506080755 31 143 0.0 0.0 0.00 0.00 0.00 63 1008.5
20260506080247 31 135 0.0 0.0 0.00 0.00 0.00 63 1008.5
20260506073241 32 153 0.0 0.0 0.00 0.00 0.00 62 1008.7
20260506072741 32 138 0.0 0.0 0.00 0.00 0.00 62 1008.7
20260506071748 32 139 0.0 0.0 0.00 0.00 0.00 62 1008.9
20260506071238 32 156 0.0 0.0 0.00 0.00 0.00 62 1009.0
20260506070737 32 150 0.0 0.0 0.00 0.00 0.00 62 1009.0
20260506070235 32 135 0.0 0.0 0.00 0.00 0.00 62 1009.0
20260506061732 32 135 0.0 0.0 0.00 0.00 0.00 62 1009.4
20260506061224 32 135 0.0 0.0 0.00 0.00 0.00 62 1009.5
20260506060723 32 135 0.0 0.0 0.00 0.00 0.00 62 1009.5
20260506050710 32 135 0.0 0.0 0.00 0.00 0.00 63 1010.0
20260506050210 32 135 0.0 0.0 0.00 0.00 0.00 63 1009.8
20260506044713 32 157 0.0 0.0 0.00 0.00 0.00 63 1010.2
20260506044207 32 180 0.0 0.0 0.00 0.00 0.00 64 1010.3
20260506043704 32 135 0.0 0.0 0.00 0.00 0.00 64 1010.3
20260506043203 32 135 0.0 0.0 0.00 0.00 0.00 64 1010.4
20260506042208 32 135 0.0 0.0 0.00 0.00 0.00 65 1010.5
20260506041159 32 135 0.0 0.0 0.00 0.00 0.00 66 1010.7
20260506040700 31 135 0.0 0.0 0.00 0.00 0.00 66 1010.6
20260506035658 31 135 0.0 0.0 0.00 0.00 0.00 67 1010.7
20260506035156 31 135 0.0 0.0 0.00 0.00 0.00 67 1011.0
20260506034654 31 143 0.0 0.0 0.00 0.00 0.00 67 1011.1
20260506033157 31 150 0.0 0.0 0.00 0.00 0.00 69 1011.1
20260506032656 31 135 0.0 0.0 0.00 0.00 0.00 69 1011.3
20260506032155 31 135 0.0 0.0 0.00 0.00 0.00 69 1011.3
20260506031654 31 135 0.0 0.0 0.00 0.00 0.00 70 1011.4
20260506031148 30 135 0.0 0.0 0.00 0.00 0.00 70 1011.5
20260506030145 30 135 0.0 0.0 0.00 0.00 0.00 71 1011.6
20260506025643 30 135 0.0 0.0 0.00 0.00 0.00 71 1011.7
20260506025142 30 135 0.0 0.0 0.00 0.00 0.00 72 1011.7
20260506024641 30 135 0.0 0.0 0.00 0.00 0.00 72 1011.7
20260506024142 30 135 0.0 0.0 0.00 0.00 0.00 72 1011.8
20260506023639 30 157 0.0 0.0 0.00 0.00 0.00 72 1011.7
20260506023138 30 135 0.0 0.0 0.00 0.00 0.00 72 1011.7
20260506022637 29 135 0.0 0.0 0.00 0.00 0.00 73 1011.6
20260506022137 29 157 0.0 0.0 0.00 0.00 0.00 73 1011.6
20260506021135 29 135 0.0 0.0 0.00 0.00 0.00 73 1011.7
20260506020634 29 135 0.0 0.0 0.00 0.00 0.00 73 1011.6
20260506020133 29 135 0.0 0.0 0.00 0.00 0.00 73 1011.6
20260506014629 28 169 0.0 0.0 0.00 0.00 0.00 73 1011.5
20260506014134 28 157 0.0 0.0 0.00 0.00 0.00 73 1011.5
20260506013628 28 135 0.0 0.0 0.00 0.00 0.00 73 1011.5
20260506013127 28 135 0.0 0.0 0.00 0.00 0.00 73 1011.5
20260506012634 28 135 0.0 0.0 0.00 0.00 0.00 73 1011.5
20260506012123 28 135 0.0 0.0 0.00 0.00 0.00 73 1011.6
20260506011622 28 135 0.0 0.0 0.00 0.00 0.00 73 1011.6
20260506011121 28 135 0.0 0.0 0.00 0.00 0.00 73 1011.6
20260506010620 28 135 0.0 0.0 0.00 0.00 0.00 73 1011.5
20260506005619 28 135 0.0 0.0 0.00 0.00 0.00 73 1011.4
20260506005117 28 135 0.0 0.0 0.00 0.00 0.00 73 1011.3
20260506004616 28 135 0.0 0.0 0.00 0.00 0.00 73 1011.3
20260506004115 28 135 0.0 0.0 0.00 0.00 0.00 73 1011.1
20260506003616 28 135 0.0 0.0 0.00 0.00 0.00 73 1011.1
20260506003114 28 135 0.0 0.0 0.00 0.00 0.00 73 1011.0
20260506002613 28 135 0.0 0.0 0.00 0.00 0.00 73 1010.9
20260506002114 28 135 0.0 0.0 0.00 0.00 0.00 73 1010.9
20260506001611 28 157 0.0 0.0 0.00 0.00 0.00 73 1010.8
20260506000608 28 135 0.0 0.0 0.00 0.00 0.00 73 1010.7
20260506000107 28 135 0.0 0.0 0.00 0.00 0.00 73 1010.6
20260505234610 28 135 0.0 0.0 0.00 0.00 0.00 72 1010.4
20260505234109 28 135 0.0 0.0 0.00 0.00 0.00 72 1010.3
20260505233602 28 135 0.0 0.0 0.00 0.00 0.00 72 1010.3
20260505233100 28 135 0.0 0.0 0.00 0.00 0.00 72 1010.3
20260505232559 28 135 0.0 0.0 0.00 0.00 0.00 72 1010.3
20260505232113 28 135 0.0 0.0 0.00 0.00 0.00 72 1010.2
20260505231557 28 135 0.0 0.0 0.00 0.00 0.00 72 1010.3
20260505231056 28 135 0.0 0.0 0.00 0.00 0.00 72 1010.2
20260505225602 28 135 0.0 0.0 0.00 0.00 0.00 72 1010.0
20260505225053 28 135 0.0 0.0 0.00 0.00 0.00 72 1010.0
20260505224552 28 135 0.0 0.0 0.00 0.00 0.00 72 1009.9
20260505224050 28 135 0.0 0.0 0.00 0.00 0.00 72 1009.9
20260505223549 28 135 0.0 0.0 0.00 0.00 0.00 72 1009.9
20260505223055 28 135 0.0 0.0 0.00 0.00 0.00 72 1009.9
20260505222546 28 135 0.0 0.0 0.00 0.00 0.00 72 1009.8
20260505222047 28 135 0.0 0.0 0.00 0.00 0.00 72 1009.7
20260505221047 28 135 0.0 0.0 0.00 0.00 0.00 72 1009.8
20260505220547 28 135 0.0 0.0 0.00 0.00 0.00 72 1009.7
20260505220041 28 135 0.0 0.0 0.00 0.00 0.00 72 1009.7
20260505215540 28 135 0.0 0.0 0.00 0.00 0.00 72 1009.6
20260505215039 28 135 0.0 0.0 0.00 0.00 0.00 72 1009.6
20260505214540 28 135 0.0 0.0 0.00 0.00 0.00 72 1009.6
20260505214050 28 135 0.0 0.0 0.00 0.00 0.00 72 1009.5
20260505213536 28 135 0.0 0.0 0.00 0.00 0.00 71 1009.4
20260505213035 28 135 0.0 0.0 0.00 0.00 0.00 71 1009.5
20260505212534 28 135 0.0 0.0 0.00 0.00 0.00 71 1009.4
20260505212033 28 135 0.0 0.0 0.00 0.00 0.00 71 1009.4
20260505211539 28 135 0.0 0.0 0.00 0.00 0.00 71 1009.5
20260505205528 28 135 0.0 0.0 0.00 0.00 0.00 71 1009.7
20260505205040 28 135 0.0 0.0 0.00 0.00 0.00 71 1009.8
20260505204526 28 135 0.0 0.0 0.00 0.00 0.00 71 1009.8
20260505204025 28 135 0.0 0.0 0.00 0.00 0.00 71 1009.9
20260505203525 28 135 0.0 0.0 0.00 0.00 0.00 71 1009.8
20260505203024 28 135 0.0 0.0 0.00 0.00 0.00 71 1009.8
20260505202021 28 135 0.0 0.0 0.00 0.00 0.00 71 1009.8